| time (UTC) | temp F | wind direction | speed MPH | gust MPH | rain 1hr in | rain 24hr in | rain mn in | humidity % | barometer mb |
| 20260906182547 | 73 | 360 | 3.0 | 8.0 | 0.00 | 0.09 | 0.09 | 93 | 1017.9 |
| 20260906182043 | 73 | 360 | 1.0 | 7.0 | 0.00 | 0.09 | 0.09 | 93 | 1018.1 |
| 20260906181609 | 72 | 125 | 2.0 | 7.0 | 0.00 | 0.09 | 0.09 | 93 | 1018.5 |
| 20260906181043 | 72 | 119 | 2.0 | 6.0 | 0.00 | 0.09 | 0.09 | 93 | 1018.3 |
| 20260906180543 | 72 | 106 | 3.0 | 6.0 | 0.00 | 0.09 | 0.09 | 93 | 1018.4 |
| 20260906180119 | 72 | 109 | 3.0 | 7.0 | 0.00 | 0.09 | 0.09 | 93 | 1018.3 |
| 20260906175543 | 72 | 140 | 3.0 | 9.0 | 0.00 | 0.09 | 0.09 | 93 | 1018.1 |
| 20260906175046 | 72 | 159 | 4.0 | 9.0 | 0.00 | 0.09 | 0.09 | 93 | 1017.8 |
| 20260906174603 | 72 | 111 | 5.0 | 10.0 | 0.00 | 0.09 | 0.09 | 93 | 1018.0 |
| 20260906174043 | 72 | 119 | 5.0 | 10.0 | 0.00 | 0.09 | 0.09 | 93 | 1018.0 |
| 20260906173547 | 72 | 360 | 3.0 | 9.0 | 0.00 | 0.09 | 0.09 | 93 | 1018.3 |
| 20260906173100 | 72 | 126 | 5.0 | 9.0 | 0.00 | 0.09 | 0.09 | 93 | 1018.4 |
| 20260906172546 | 72 | 113 | 3.0 | 8.0 | 0.00 | 0.09 | 0.09 | 93 | 1018.2 |
| 20260906172047 | 72 | 360 | 4.0 | 8.0 | 0.00 | 0.09 | 0.09 | 93 | 1017.9 |
| 20260906171604 | 72 | 144 | 3.0 | 11.0 | 0.00 | 0.09 | 0.09 | 93 | 1018.2 |
| 20260906171045 | 72 | 131 | 5.0 | 11.0 | 0.00 | 0.09 | 0.09 | 93 | 1018.2 |
| 20260906170546 | 72 | 122 | 7.0 | 11.0 | 0.00 | 0.09 | 0.09 | 93 | 1018.4 |
| 20260906170120 | 72 | 360 | 6.0 | 10.0 | 0.00 | 0.09 | 0.09 | 93 | 1018.5 |
| 20260906165547 | 72 | 94 | 3.0 | 9.0 | 0.00 | 0.09 | 0.09 | 93 | 1018.0 |
| 20260906165048 | 72 | 88 | 2.0 | 10.0 | 0.00 | 0.09 | 0.09 | 93 | 1017.6 |
| 20260906164603 | 72 | 360 | 5.0 | 12.0 | 0.00 | 0.09 | 0.09 | 93 | 1017.4 |
| 20260906164047 | 72 | 360 | 6.0 | 13.0 | 0.00 | 0.09 | 0.09 | 93 | 1017.3 |
| 20260906163547 | 73 | 88 | 8.0 | 14.0 | 0.00 | 0.09 | 0.09 | 93 | 1017.3 |
| 20260906163116 | 73 | 115 | 6.0 | 15.0 | 0.00 | 0.09 | 0.09 | 94 | 1017.4 |
| 20260906162548 | 73 | 112 | 8.0 | 15.0 | 0.00 | 0.09 | 0.09 | 94 | 1017.2 |
| 20260906162049 | 73 | 105 | 10.0 | 15.0 | 0.00 | 0.09 | 0.09 | 94 | 1017.2 |
| 20260906161604 | 73 | 88 | 8.0 | 12.0 | 0.00 | 0.09 | 0.09 | 94 | 1017.3 |
| 20260906161047 | 73 | 360 | 4.0 | 13.0 | 0.00 | 0.09 | 0.09 | 94 | 1017.3 |
| 20260906160547 | 72 | 142 | 7.0 | 13.0 | 0.01 | 0.09 | 0.09 | 94 | 1017.3 |
| 20260906160110 | 72 | 84 | 6.0 | 13.0 | 0.02 | 0.09 | 0.09 | 94 | 1017.2 |
| 20260906155546 | 72 | 96 | 8.0 | 15.0 | 0.03 | 0.09 | 0.09 | 94 | 1017.2 |
| 20260906155046 | 72 | 130 | 8.0 | 16.0 | 0.04 | 0.09 | 0.09 | 94 | 1017.3 |
| 20260906154600 | 72 | 96 | 7.0 | 16.0 | 0.06 | 0.09 | 0.09 | 94 | 1017.2 |
| 20260906154047 | 72 | 110 | 9.0 | 14.0 | 0.09 | 0.09 | 0.09 | 94 | 1017.3 |
| 20260906153546 | 72 | 127 | 7.0 | 12.0 | 0.09 | 0.09 | 0.09 | 94 | 1017.5 |
| 20260906153102 | 72 | 360 | 3.0 | 7.0 | 0.09 | 0.09 | 0.09 | 95 | 1017.6 |
| 20260906152547 | 72 | 96 | 2.0 | 6.0 | 0.09 | 0.09 | 0.09 | 94 | 1017.2 |
| 20260906152047 | 72 | 360 | 1.0 | 6.0 | 0.09 | 0.09 | 0.09 | 94 | 1017.2 |
| 20260906151602 | 72 | 82 | 2.0 | 8.0 | 0.09 | 0.09 | 0.09 | 94 | 1017.1 |
| 20260906151047 | 71 | 83 | 2.0 | 10.0 | 0.09 | 0.09 | 0.09 | 94 | 1016.8 |
| 20260906150547 | 71 | 111 | 5.0 | 10.0 | 0.08 | 0.08 | 0.08 | 94 | 1017.1 |
| 20260906150113 | 71 | 93 | 3.0 | 8.0 | 0.06 | 0.06 | 0.06 | 94 | 1017.1 |
| 20260906145548 | 72 | 360 | 4.0 | 10.0 | 0.06 | 0.06 | 0.06 | 94 | 1017.0 |
| 20260906145046 | 72 | 130 | 5.0 | 10.0 | 0.05 | 0.05 | 0.05 | 94 | 1017.1 |
| 20260906144604 | 72 | 109 | 5.0 | 11.0 | 0.02 | 0.02 | 0.02 | 94 | 1017.2 |
| 20260906144047 | 71 | 360 | 6.0 | 11.0 | 0.00 | 0.00 | 0.00 | 95 | 1017.3 |
| 20260906143548 | 71 | 119 | 5.0 | 9.0 | 0.00 | 0.00 | 0.00 | 95 | 1017.2 |
| 20260906143105 | 71 | 86 | 5.0 | 8.0 | 0.00 | 0.00 | 0.00 | 95 | 1017.2 |
| 20260906142545 | 71 | 93 | 4.0 | 10.0 | 0.00 | 0.00 | 0.00 | 95 | 1017.1 |
| 20260906142046 | 71 | 103 | 4.0 | 10.0 | 0.00 | 0.00 | 0.00 | 95 | 1017.0 |
| 20260906141601 | 71 | 103 | 5.0 | 10.0 | 0.00 | 0.00 | 0.00 | 95 | 1017.3 |
| 20260906141045 | 71 | 360 | 5.0 | 8.0 | 0.00 | 0.00 | 0.00 | 95 | 1017.3 |
| 20260906140548 | 71 | 360 | 3.0 | 9.0 | 0.00 | 0.00 | 0.00 | 95 | 1017.4 |
| 20260906135549 | 71 | 98 | 4.0 | 9.0 | 0.00 | 0.00 | 0.00 | 95 | 1017.1 |
| 20260906135045 | 71 | 113 | 5.0 | 10.0 | 0.00 | 0.00 | 0.00 | 95 | 1017.1 |
| 20260906134602 | 71 | 136 | 4.0 | 10.0 | 0.00 | 0.00 | 0.00 | 95 | 1017.3 |
| 20260906134046 | 71 | 103 | 5.0 | 10.0 | 0.00 | 0.00 | 0.00 | 95 | 1017.1 |
| 20260906133545 | 71 | 125 | 3.0 | 8.0 | 0.00 | 0.00 | 0.00 | 95 | 1017.3 |
| 20260906133133 | 71 | 124 | 4.0 | 11.0 | 0.00 | 0.00 | 0.00 | 95 | 1017.3 |
| 20260906132546 | 71 | 128 | 4.0 | 11.0 | 0.00 | 0.00 | 0.00 | 95 | 1017.2 |
| 20260906132046 | 71 | 117 | 6.0 | 11.0 | 0.00 | 0.00 | 0.00 | 95 | 1017.1 |
| 20260906131602 | 71 | 134 | 5.0 | 11.0 | 0.00 | 0.00 | 0.00 | 95 | 1017.0 |
| 20260906131046 | 71 | 109 | 5.0 | 10.0 | 0.00 | 0.00 | 0.00 | 95 | 1017.1 |
| 20260906130545 | 71 | 122 | 4.0 | 10.0 | 0.00 | 0.00 | 0.00 | 96 | 1016.8 |
| 20260906130109 | 71 | 360 | 5.0 | 9.0 | 0.00 | 0.00 | 0.00 | 96 | 1016.8 |
| 20260906125545 | 71 | 107 | 4.0 | 9.0 | 0.00 | 0.00 | 0.00 | 96 | 1016.7 |
| 20260906125043 | 70 | 123 | 4.0 | 9.0 | 0.00 | 0.00 | 0.00 | 96 | 1016.7 |
| 20260906124608 | 70 | 360 | 5.0 | 9.0 | 0.00 | 0.00 | 0.00 | 96 | 1016.9 |
| 20260906124045 | 70 | 360 | 6.0 | 9.0 | 0.00 | 0.00 | 0.00 | 96 | 1016.7 |
| 20260906123542 | 70 | 360 | 3.0 | 9.0 | 0.00 | 0.00 | 0.00 | 96 | 1016.8 |
| 20260906123100 | 70 | 129 | 5.0 | 9.0 | 0.00 | 0.00 | 0.00 | 96 | 1016.8 |
| 20260906122545 | 70 | 86 | 5.0 | 9.0 | 0.00 | 0.00 | 0.00 | 96 | 1016.8 |
| 20260906122046 | 70 | 62 | 5.0 | 9.0 | 0.00 | 0.00 | 0.00 | 96 | 1016.7 |
| 20260906121557 | 69 | 360 | 4.0 | 8.0 | 0.00 | 0.00 | 0.00 | 96 | 1016.7 |
| 20260906121045 | 69 | 69 | 4.0 | 8.0 | 0.00 | 0.00 | 0.00 | 96 | 1016.7 |
| 20260906120545 | 69 | 74 | 4.0 | 8.0 | 0.00 | 0.00 | 0.00 | 96 | 1016.7 |
| 20260906120105 | 69 | 71 | 3.0 | 8.0 | 0.00 | 0.00 | 0.00 | 96 | 1016.6 |
| 20260906115545 | 69 | 72 | 4.0 | 8.0 | 0.00 | 0.00 | 0.00 | 96 | 1016.6 |
| 20260906115045 | 69 | 360 | 4.0 | 8.0 | 0.00 | 0.00 | 0.00 | 96 | 1016.5 |
| 20260906114603 | 69 | 66 | 3.0 | 7.0 | 0.00 | 0.00 | 0.00 | 96 | 1016.5 |
| 20260906114045 | 69 | 86 | 3.0 | 7.0 | 0.00 | 0.00 | 0.00 | 96 | 1016.5 |
| 20260906113545 | 69 | 80 | 3.0 | 6.0 | 0.00 | 0.00 | 0.00 | 96 | 1016.6 |
| 20260906113102 | 69 | 86 | 3.0 | 6.0 | 0.00 | 0.00 | 0.00 | 96 | 1016.5 |
| 20260906112543 | 69 | 82 | 3.0 | 6.0 | 0.00 | 0.00 | 0.00 | 96 | 1016.4 |
| 20260906112045 | 69 | 101 | 3.0 | 6.0 | 0.00 | 0.00 | 0.00 | 96 | 1016.4 |
| 20260906111613 | 69 | 88 | 2.0 | 6.0 | 0.00 | 0.00 | 0.00 | 96 | 1016.4 |
| 20260906111046 | 69 | 87 | 2.0 | 6.0 | 0.00 | 0.00 | 0.00 | 96 | 1016.4 |
| 20260906110543 | 69 | 360 | 3.0 | 6.0 | 0.00 | 0.00 | 0.00 | 95 | 1016.4 |
| 20260906110100 | 69 | 98 | 2.0 | 4.0 | 0.00 | 0.00 | 0.00 | 95 | 1016.5 |
| 20260906105542 | 69 | 78 | 2.0 | 4.0 | 0.00 | 0.00 | 0.00 | 95 | 1016.6 |
| 20260906105046 | 69 | 84 | 2.0 | 4.0 | 0.00 | 0.00 | 0.00 | 96 | 1016.6 |
| 20260906104602 | 69 | 84 | 2.0 | 4.0 | 0.00 | 0.00 | 0.00 | 96 | 1016.6 |
| 20260906104045 | 69 | 84 | 1.0 | 4.0 | 0.00 | 0.00 | 0.00 | 95 | 1016.6 |
| 20260906103544 | 69 | 117 | 2.0 | 4.0 | 0.00 | 0.00 | 0.00 | 95 | 1016.5 |
| 20260906103059 | 69 | 117 | 1.0 | 6.0 | 0.00 | 0.00 | 0.00 | 95 | 1016.4 |
| 20260906102542 | 69 | 111 | 2.0 | 6.0 | 0.00 | 0.00 | 0.00 | 95 | 1016.4 |
| 20260906102044 | 69 | 155 | 2.0 | 6.0 | 0.00 | 0.00 | 0.00 | 95 | 1016.4 |
| 20260906101601 | 69 | 117 | 2.0 | 4.0 | 0.00 | 0.00 | 0.00 | 95 | 1016.4 |
| 20260906101043 | 69 | 120 | 2.0 | 6.0 | 0.00 | 0.00 | 0.00 | 95 | 1016.3 |
| 20260906100543 | 70 | 161 | 3.0 | 6.0 | 0.00 | 0.00 | 0.00 | 95 | 1016.4 |
| 20260906100100 | 70 | 141 | 3.0 | 5.0 | 0.00 | 0.00 | 0.00 | 95 | 1016.4 |
| 20260906095547 | 70 | 132 | 2.0 | 6.0 | 0.00 | 0.00 | 0.00 | 95 | 1016.4 |
| 20260906095043 | 70 | 132 | 2.0 | 6.0 | 0.00 | 0.00 | 0.00 | 95 | 1016.4 |
| 20260906094559 | 70 | 123 | 3.0 | 6.0 | 0.00 | 0.00 | 0.00 | 95 | 1016.2 |
| 20260906094045 | 70 | 113 | 2.0 | 6.0 | 0.00 | 0.00 | 0.00 | 95 | 1016.3 |
| 20260906093547 | 70 | 138 | 3.0 | 6.0 | 0.00 | 0.00 | 0.00 | 95 | 1016.3 |
| 20260906093103 | 70 | 121 | 2.0 | 7.0 | 0.00 | 0.00 | 0.00 | 95 | 1016.3 |
| 20260906092543 | 70 | 107 | 4.0 | 8.0 | 0.00 | 0.00 | 0.00 | 95 | 1016.3 |
| 20260906092046 | 70 | 100 | 3.0 | 8.0 | 0.00 | 0.00 | 0.00 | 95 | 1016.2 |
| 20260906091558 | 70 | 121 | 4.0 | 8.0 | 0.00 | 0.00 | 0.00 | 95 | 1016.2 |
| 20260906091045 | 70 | 110 | 3.0 | 9.0 | 0.00 | 0.00 | 0.00 | 95 | 1016.1 |
| 20260906090544 | 70 | 99 | 3.0 | 9.0 | 0.00 | 0.00 | 0.00 | 95 | 1016.0 |
| 20260906090103 | 70 | 100 | 4.0 | 8.0 | 0.00 | 0.00 | 0.00 | 95 | 1016.0 |
| 20260906085549 | 70 | 103 | 4.0 | 7.0 | 0.00 | 0.00 | 0.00 | 95 | 1016.0 |
| 20260906085044 | 70 | 103 | 4.0 | 8.0 | 0.00 | 0.00 | 0.00 | 95 | 1015.9 |
| 20260906084602 | 70 | 95 | 5.0 | 8.0 | 0.00 | 0.00 | 0.00 | 95 | 1015.9 |
| 20260906084045 | 70 | 88 | 3.0 | 7.0 | 0.00 | 0.00 | 0.00 | 95 | 1015.9 |
| 20260906083544 | 70 | 119 | 3.0 | 7.0 | 0.00 | 0.00 | 0.00 | 95 | 1016.0 |
| 20260906083100 | 70 | 360 | 3.0 | 6.0 | 0.00 | 0.00 | 0.00 | 95 | 1016.0 |
| 20260906082545 | 70 | 85 | 3.0 | 6.0 | 0.00 | 0.00 | 0.00 | 95 | 1016.1 |
| 20260906082045 | 70 | 98 | 3.0 | 6.0 | 0.00 | 0.00 | 0.00 | 95 | 1016.1 |
| 20260906081604 | 70 | 74 | 3.0 | 7.0 | 0.00 | 0.00 | 0.00 | 95 | 1016.1 |
| 20260906081048 | 70 | 88 | 3.0 | 7.0 | 0.00 | 0.00 | 0.00 | 95 | 1016.3 |
| 20260906080547 | 70 | 86 | 2.0 | 6.0 | 0.00 | 0.00 | 0.00 | 95 | 1016.2 |
| 20260906080104 | 70 | 360 | 3.0 | 7.0 | 0.00 | 0.00 | 0.00 | 95 | 1016.1 |
| 20260906075547 | 71 | 103 | 4.0 | 7.0 | 0.00 | 0.00 | 0.00 | 95 | 1016.1 |
| 20260906075050 | 71 | 93 | 3.0 | 7.0 | 0.00 | 0.00 | 0.00 | 95 | 1016.0 |
| 20260906074603 | 71 | 72 | 3.0 | 6.0 | 0.00 | 0.00 | 0.00 | 95 | 1016.0 |
| 20260906074046 | 71 | 109 | 3.0 | 8.0 | 0.00 | 0.00 | 0.00 | 95 | 1015.9 |
| 20260906073546 | 71 | 83 | 3.0 | 8.0 | 0.00 | 0.00 | 0.00 | 95 | 1015.8 |
| 20260906073106 | 71 | 88 | 3.0 | 7.0 | 0.00 | 0.00 | 0.00 | 95 | 1016.0 |
| 20260906072545 | 71 | 109 | 3.0 | 7.0 | 0.00 | 0.00 | 0.00 | 95 | 1016.1 |
| 20260906072045 | 71 | 107 | 2.0 | 7.0 | 0.00 | 0.00 | 0.00 | 95 | 1016.1 |
| 20260906071603 | 71 | 95 | 2.0 | 7.0 | 0.00 | 0.00 | 0.00 | 95 | 1016.2 |
| 20260906071045 | 71 | 111 | 2.0 | 6.0 | 0.00 | 0.00 | 0.00 | 95 | 1016.2 |
| 20260906070545 | 71 | 113 | 2.0 | 6.0 | 0.00 | 0.00 | 0.00 | 95 | 1016.2 |
| 20260906070103 | 71 | 93 | 2.0 | 7.0 | 0.00 | 0.00 | 0.00 | 95 | 1016.2 |
| 20260906065548 | 71 | 115 | 3.0 | 7.0 | 0.00 | 0.00 | 0.00 | 95 | 1016.2 |
| 20260906065047 | 71 | 94 | 4.0 | 6.0 | 0.00 | 0.00 | 0.00 | 95 | 1016.2 |
| 20260906064600 | 71 | 108 | 3.0 | 7.0 | 0.00 | 0.00 | 0.00 | 94 | 1016.1 |
| 20260906064044 | 71 | 126 | 2.0 | 8.0 | 0.00 | 0.00 | 0.00 | 94 | 1016.2 |
| 20260906063545 | 71 | 88 | 4.0 | 8.0 | 0.00 | 0.00 | 0.00 | 94 | 1016.2 |
| 20260906063100 | 71 | 360 | 3.0 | 8.0 | 0.00 | 0.00 | 0.00 | 94 | 1016.1 |
| 20260906062547 | 71 | 110 | 4.0 | 10.0 | 0.00 | 0.00 | 0.00 | 94 | 1016.1 |
| 20260906062047 | 71 | 103 | 4.0 | 10.0 | 0.00 | 0.00 | 0.00 | 94 | 1016.0 |
| 20260906061604 | 71 | 96 | 5.0 | 10.0 | 0.00 | 0.00 | 0.00 | 94 | 1016.0 |
| 20260906061047 | 71 | 89 | 6.0 | 10.0 | 0.00 | 0.00 | 0.00 | 94 | 1016.1 |
| 20260906060545 | 71 | 82 | 5.0 | 9.0 | 0.00 | 0.00 | 0.00 | 94 | 1016.2 |
| 20260906055545 | 71 | 360 | 4.0 | 8.0 | 0.00 | 0.00 | 0.00 | 94 | 1016.3 |
| 20260906055045 | 71 | 360 | 3.0 | 7.0 | 0.00 | 0.00 | 0.00 | 94 | 1016.3 |
| 20260906054607 | 71 | 84 | 4.0 | 7.0 | 0.00 | 0.00 | 0.00 | 94 | 1016.4 |
| 20260906054045 | 71 | 97 | 3.0 | 7.0 | 0.00 | 0.00 | 0.00 | 94 | 1016.4 |
| 20260906053545 | 71 | 84 | 3.0 | 8.0 | 0.00 | 0.00 | 0.00 | 94 | 1016.3 |
| 20260906053102 | 71 | 94 | 3.0 | 8.0 | 0.00 | 0.00 | 0.00 | 94 | 1016.4 |
| 20260906052550 | 72 | 64 | 3.0 | 8.0 | 0.00 | 0.00 | 0.00 | 94 | 1016.3 |
| 20260906052048 | 72 | 51 | 4.0 | 8.0 | 0.00 | 0.00 | 0.00 | 94 | 1016.3 |
| 20260906051613 | 72 | 75 | 3.0 | 7.0 | 0.00 | 0.00 | 0.00 | 94 | 1016.3 |
| 20260906051045 | 72 | 74 | 3.0 | 7.0 | 0.00 | 0.00 | 0.00 | 94 | 1016.2 |
| 20260906050548 | 72 | 78 | 3.0 | 7.0 | 0.00 | 0.00 | 0.00 | 94 | 1016.2 |
| 20260906050106 | 72 | 91 | 3.0 | 7.0 | 0.00 | 0.00 | 0.00 | 94 | 1016.1 |
| 20260906045545 | 72 | 86 | 3.0 | 7.0 | 0.00 | 0.00 | 0.00 | 94 | 1016.1 |
| 20260906045048 | 72 | 102 | 3.0 | 7.0 | 0.00 | 0.00 | 0.00 | 94 | 1016.1 |
| 20260906044608 | 72 | 75 | 3.0 | 7.0 | 0.00 | 0.00 | 0.00 | 93 | 1016.1 |
| 20260906044045 | 72 | 66 | 3.0 | 7.0 | 0.00 | 0.00 | 0.00 | 93 | 1016.1 |
| 20260906043546 | 72 | 64 | 4.0 | 7.0 | 0.00 | 0.00 | 0.00 | 93 | 1016.0 |
| 20260906043100 | 72 | 53 | 3.0 | 8.0 | 0.00 | 0.00 | 0.00 | 93 | 1016.0 |
| 20260906042549 | 72 | 86 | 4.0 | 8.0 | 0.00 | 0.00 | 0.00 | 93 | 1015.9 |
| 20260906042046 | 72 | 74 | 4.0 | 9.0 | 0.00 | 0.00 | 0.00 | 93 | 1015.9 |
| 20260906041557 | 72 | 88 | 4.0 | 9.0 | 0.00 | 0.00 | 0.00 | 93 | 1015.8 |
| 20260906041047 | 73 | 86 | 4.0 | 8.0 | 0.00 | 0.00 | 0.00 | 93 | 1015.9 |
| 20260906040545 | 73 | 64 | 5.0 | 8.0 | 0.00 | 0.00 | 0.00 | 93 | 1015.8 |
| 20260906040135 | 73 | 94 | 5.0 | 10.0 | 0.00 | 0.00 | 0.00 | 93 | 1015.8 |
| 20260906035544 | 73 | 82 | 5.0 | 10.0 | 0.00 | 0.00 | 0.00 | 93 | 1015.7 |
| 20260906035047 | 73 | 92 | 6.0 | 11.0 | 0.00 | 0.00 | 0.00 | 93 | 1015.6 |
| 20260906034615 | 73 | 74 | 6.0 | 11.0 | 0.00 | 0.00 | 0.00 | 93 | 1015.6 |
| 20260906034047 | 74 | 84 | 5.0 | 11.0 | 0.00 | 0.00 | 0.00 | 93 | 1015.7 |
| 20260906033547 | 74 | 77 | 5.0 | 11.0 | 0.00 | 0.00 | 0.00 | 93 | 1015.7 |
| 20260906033107 | 74 | 69 | 6.0 | 11.0 | 0.00 | 0.00 | 0.00 | 93 | 1015.7 |
| 20260906032547 | 74 | 86 | 5.0 | 11.0 | 0.00 | 0.00 | 0.00 | 93 | 1015.7 |
| 20260906032047 | 75 | 66 | 5.0 | 11.0 | 0.00 | 0.00 | 0.00 | 93 | 1015.6 |
| 20260906031559 | 75 | 94 | 5.0 | 9.0 | 0.00 | 0.00 | 0.00 | 93 | 1015.6 |
| 20260906031047 | 75 | 81 | 4.0 | 9.0 | 0.00 | 0.00 | 0.00 | 93 | 1015.6 |
| 20260906030545 | 75 | 87 | 4.0 | 9.0 | 0.00 | 0.00 | 0.00 | 93 | 1015.6 |
| 20260906030104 | 75 | 74 | 5.0 | 9.0 | 0.00 | 0.00 | 0.00 | 93 | 1015.6 |
| 20260906025544 | 75 | 69 | 4.0 | 8.0 | 0.00 | 0.00 | 0.00 | 93 | 1015.7 |
| 20260906025048 | 75 | 53 | 4.0 | 8.0 | 0.00 | 0.00 | 0.00 | 93 | 1015.6 |
| 20260906024613 | 75 | 77 | 3.0 | 8.0 | 0.00 | 0.00 | 0.00 | 93 | 1015.7 |
| 20260906024046 | 75 | 74 | 3.0 | 8.0 | 0.00 | 0.00 | 0.00 | 93 | 1015.8 |
| 20260906023547 | 75 | 65 | 3.0 | 8.0 | 0.00 | 0.00 | 0.00 | 93 | 1015.9 |
| 20260906023102 | 75 | 57 | 4.0 | 7.0 | 0.00 | 0.00 | 0.00 | 93 | 1015.9 |
| 20260906022548 | 75 | 92 | 3.0 | 7.0 | 0.00 | 0.00 | 0.00 | 93 | 1015.9 |
| 20260906022047 | 76 | 360 | 3.0 | 5.0 | 0.00 | 0.00 | 0.00 | 93 | 1015.9 |
| 20260906021601 | 76 | 68 | 2.0 | 5.0 | 0.00 | 0.00 | 0.00 | 93 | 1016.0 |
| 20260906021046 | 76 | 65 | 2.0 | 4.0 | 0.00 | 0.00 | 0.00 | 93 | 1015.8 |
| 20260906020547 | 76 | 74 | 2.0 | 3.0 | 0.00 | 0.00 | 0.00 | 93 | 1015.8 |
| 20260906015546 | 76 | 111 | 1.0 | 3.0 | 0.00 | 0.00 | 0.00 | 93 | 1015.7 |
| 20260906015046 | 75 | 111 | 1.0 | 3.0 | 0.00 | 0.00 | 0.00 | 92 | 1015.6 |
| 20260906014601 | 75 | 111 | 0.0 | 2.0 | 0.00 | 0.00 | 0.00 | 92 | 1015.6 |
| 20260906014048 | 76 | 111 | 0.0 | 1.0 | 0.00 | 0.00 | 0.00 | 92 | 1015.6 |
| 20260906013547 | 76 | 0 | 0.0 | 1.0 | 0.00 | 0.00 | 0.00 | 92 | 1015.5 |
| 20260906013112 | 76 | 0 | 0.0 | 1.0 | 0.00 | 0.00 | 0.00 | 91 | 1015.5 |
| 20260906012547 | 76 | 0 | 0.0 | 1.0 | 0.00 | 0.00 | 0.00 | 91 | 1015.4 |
| 20260906012048 | 76 | 0 | 0.0 | 1.0 | 0.00 | 0.00 | 0.00 | 91 | 1015.4 |
| 20260906011602 | 76 | 0 | 0.0 | 1.0 | 0.00 | 0.00 | 0.00 | 91 | 1015.1 |
| 20260906011047 | 76 | 0 | 0.0 | 1.0 | 0.00 | 0.00 | 0.00 | 91 | 1015.1 |
| 20260906010548 | 76 | 0 | 0.0 | 2.0 | 0.00 | 0.00 | 0.00 | 90 | 1014.9 |
| 20260906005550 | 77 | 111 | 0.0 | 3.0 | 0.00 | 0.00 | 0.00 | 89 | 1014.7 |
| 20260906005047 | 77 | 111 | 1.0 | 3.0 | 0.00 | 0.00 | 0.00 | 88 | 1014.7 |
| 20260906004604 | 78 | 111 | 1.0 | 4.0 | 0.00 | 0.00 | 0.00 | 88 | 1014.7 |
| 20260906004047 | 78 | 111 | 1.0 | 4.0 | 0.00 | 0.00 | 0.00 | 87 | 1014.8 |
| 20260906003547 | 79 | 107 | 2.0 | 7.0 | 0.00 | 0.00 | 0.00 | 87 | 1014.9 |
| 20260906003104 | 79 | 120 | 3.0 | 8.0 | 0.00 | 0.00 | 0.00 | 86 | 1015.0 |
| 20260906002547 | 79 | 128 | 3.0 | 8.0 | 0.00 | 0.00 | 0.00 | 85 | 1015.1 |
| 20260906002048 | 80 | 114 | 5.0 | 9.0 | 0.00 | 0.00 | 0.00 | 85 | 1015.0 |
| 20260906001608 | 80 | 108 | 4.0 | 10.0 | 0.00 | 0.00 | 0.00 | 84 | 1015.0 |
| 20260906001047 | 80 | 106 | 5.0 | 10.0 | 0.00 | 0.00 | 0.00 | 84 | 1015.0 |
| 20260906000547 | 80 | 360 | 3.0 | 11.0 | 0.00 | 0.00 | 0.00 | 84 | 1015.1 |
| 20260906000104 | 80 | 101 | 4.0 | 11.0 | 0.00 | 0.00 | 0.00 | 83 | 1015.1 |
| 20260905235547 | 81 | 90 | 6.0 | 11.0 | 0.00 | 0.00 | 0.00 | 83 | 1015.0 |
| 20260905235047 | 81 | 88 | 5.0 | 11.0 | 0.00 | 0.00 | 0.00 | 83 | 1014.9 |
| 20260905234606 | 81 | 101 | 8.0 | 11.0 | 0.00 | 0.00 | 0.00 | 82 | 1014.9 |
| 20260905234046 | 81 | 360 | 6.0 | 11.0 | 0.00 | 0.00 | 0.00 | 82 | 1014.8 |
| 20260905233548 | 81 | 76 | 7.0 | 11.0 | 0.00 | 0.00 | 0.00 | 82 | 1014.9 |
| 20260905233104 | 81 | 108 | 6.0 | 10.0 | 0.00 | 0.00 | 0.00 | 83 | 1014.9 |
| 20260905232547 | 81 | 111 | 5.0 | 10.0 | 0.00 | 0.00 | 0.00 | 82 | 1014.8 |
| 20260905232047 | 81 | 102 | 6.0 | 10.0 | 0.00 | 0.00 | 0.00 | 82 | 1014.8 |
| 20260905231605 | 81 | 111 | 6.0 | 10.0 | 0.00 | 0.00 | 0.00 | 82 | 1014.7 |
| 20260905231046 | 81 | 126 | 4.0 | 10.0 | 0.00 | 0.00 | 0.00 | 82 | 1014.7 |
| 20260905230545 | 81 | 104 | 5.0 | 11.0 | 0.00 | 0.00 | 0.00 | 81 | 1014.6 |
| 20260905230126 | 81 | 98 | 6.0 | 12.0 | 0.00 | 0.00 | 0.00 | 80 | 1014.7 |
| 20260905225543 | 82 | 80 | 8.0 | 12.0 | 0.00 | 0.00 | 0.00 | 79 | 1014.7 |
| 20260905225044 | 82 | 360 | 8.0 | 12.0 | 0.00 | 0.00 | 0.00 | 79 | 1014.7 |
| 20260905224616 | 82 | 101 | 7.0 | 12.0 | 0.00 | 0.00 | 0.00 | 79 | 1014.5 |
| 20260905224045 | 82 | 111 | 8.0 | 12.0 | 0.00 | 0.00 | 0.00 | 78 | 1014.4 |
| 20260905223545 | 82 | 87 | 7.0 | 12.0 | 0.00 | 0.00 | 0.00 | 78 | 1014.4 |
| 20260905223116 | 82 | 81 | 7.0 | 12.0 | 0.00 | 0.00 | 0.00 | 78 | 1014.4 |
| 20260905222545 | 82 | 108 | 6.0 | 11.0 | 0.00 | 0.00 | 0.00 | 79 | 1014.3 |
| 20260905222049 | 81 | 98 | 7.0 | 13.0 | 0.00 | 0.00 | 0.00 | 78 | 1014.4 |
| 20260905221605 | 82 | 129 | 7.0 | 13.0 | 0.00 | 0.00 | 0.00 | 78 | 1014.3 |
| 20260905221045 | 82 | 80 | 5.0 | 13.0 | 0.00 | 0.00 | 0.00 | 77 | 1014.2 |
| 20260905220544 | 82 | 89 | 8.0 | 13.0 | 0.00 | 0.00 | 0.00 | 77 | 1014.2 |
| 20260905215545 | 82 | 96 | 7.0 | 11.0 | 0.00 | 0.00 | 0.00 | 76 | 1014.4 |
| 20260905215048 | 82 | 103 | 7.0 | 12.0 | 0.00 | 0.00 | 0.00 | 75 | 1014.3 |
| 20260905214604 | 82 | 75 | 6.0 | 12.0 | 0.00 | 0.00 | 0.00 | 76 | 1014.3 |
| 20260905214045 | 82 | 80 | 8.0 | 12.0 | 0.00 | 0.00 | 0.00 | 76 | 1014.3 |
| 20260905213545 | 82 | 87 | 7.0 | 12.0 | 0.00 | 0.00 | 0.00 | 77 | 1014.2 |
| 20260905213106 | 82 | 109 | 8.0 | 14.0 | 0.00 | 0.00 | 0.00 | 76 | 1014.1 |
| 20260905212545 | 82 | 68 | 8.0 | 14.0 | 0.00 | 0.00 | 0.00 | 76 | 1014.1 |
| 20260905212044 | 83 | 75 | 9.0 | 14.0 | 0.00 | 0.00 | 0.00 | 76 | 1014.0 |
| 20260905211559 | 83 | 86 | 7.0 | 13.0 | 0.00 | 0.00 | 0.00 | 76 | 1014.0 |
| 20260905211045 | 83 | 69 | 9.0 | 14.0 | 0.00 | 0.00 | 0.00 | 76 | 1014.0 |
| 20260905210545 | 82 | 90 | 10.0 | 15.0 | 0.00 | 0.00 | 0.00 | 77 | 1014.1 |
| 20260905210107 | 81 | 82 | 10.0 | 15.0 | 0.00 | 0.00 | 0.00 | 76 | 1014.0 |
| 20260905205544 | 81 | 89 | 8.0 | 15.0 | 0.00 | 0.00 | 0.00 | 77 | 1014.0 |
| 20260905205044 | 81 | 75 | 9.0 | 15.0 | 0.00 | 0.00 | 0.00 | 78 | 1014.1 |
| 20260905204558 | 80 | 70 | 9.0 | 14.0 | 0.00 | 0.00 | 0.00 | 78 | 1014.2 |
| 20260905204044 | 80 | 89 | 9.0 | 14.0 | 0.00 | 0.00 | 0.00 | 78 | 1014.2 |
| 20260905203546 | 80 | 83 | 7.0 | 13.0 | 0.00 | 0.00 | 0.00 | 78 | 1014.4 |
| 20260905203102 | 80 | 86 | 8.0 | 13.0 | 0.00 | 0.00 | 0.00 | 78 | 1014.6 |
| 20260905202545 | 80 | 106 | 7.0 | 11.0 | 0.00 | 0.00 | 0.00 | 78 | 1014.6 |
| 20260905202044 | 80 | 74 | 7.0 | 15.0 | 0.00 | 0.00 | 0.00 | 78 | 1014.4 |
| 20260905201559 | 80 | 40 | 7.0 | 15.0 | 0.00 | 0.00 | 0.00 | 78 | 1014.3 |
| 20260905201044 | 80 | 59 | 8.0 | 13.0 | 0.00 | 0.00 | 0.00 | 77 | 1014.3 |
| 20260905200544 | 80 | 74 | 8.0 | 14.0 | 0.00 | 0.00 | 0.00 | 78 | 1014.2 |
| 20260905200106 | 80 | 61 | 10.0 | 15.0 | 0.00 | 0.00 | 0.00 | 78 | 1014.3 |
| 20260905195548 | 80 | 15 | 9.0 | 16.0 | 0.00 | 0.00 | 0.00 | 77 | 1014.3 |
| 20260905195048 | 80 | 37 | 10.0 | 16.0 | 0.00 | 0.00 | 0.00 | 77 | 1014.3 |
| 20260905194559 | 80 | 89 | 8.0 | 13.0 | 0.00 | 0.00 | 0.00 | 78 | 1014.3 |
| 20260905194049 | 80 | 88 | 7.0 | 13.0 | 0.00 | 0.00 | 0.00 | 78 | 1014.3 |
| 20260905193547 | 80 | 360 | 8.0 | 13.0 | 0.00 | 0.00 | 0.00 | 78 | 1014.3 |
| 20260905193103 | 80 | 76 | 7.0 | 14.0 | 0.00 | 0.00 | 0.00 | 78 | 1014.3 |
| 20260905192548 | 80 | 56 | 7.0 | 14.0 | 0.00 | 0.00 | 0.00 | 78 | 1014.3 |
| 20260905192048 | 80 | 51 | 9.0 | 15.0 | 0.00 | 0.00 | 0.00 | 78 | 1014.4 |
| 20260905191608 | 80 | 71 | 9.0 | 15.0 | 0.00 | 0.00 | 0.00 | 78 | 1014.4 |
| 20260905191047 | 80 | 42 | 8.0 | 14.0 | 0.00 | 0.00 | 0.00 | 77 | 1014.5 |
| 20260905190549 | 80 | 62 | 9.0 | 14.0 | 0.00 | 0.00 | 0.00 | 78 | 1014.6 |
| 20260905190104 | 80 | 57 | 9.0 | 13.0 | 0.00 | 0.00 | 0.00 | 77 | 1014.5 |
| 20260905185546 | 80 | 51 | 8.0 | 13.0 | 0.00 | 0.00 | 0.00 | 77 | 1014.6 |
| 20260905185052 | 80 | 68 | 8.0 | 12.0 | 0.00 | 0.00 | 0.00 | 77 | 1014.7 |
| 20260905184608 | 80 | 57 | 8.0 | 14.0 | 0.00 | 0.00 | 0.00 | 77 | 1014.7 |
| 20260905184047 | 81 | 58 | 8.0 | 14.0 | 0.00 | 0.00 | 0.00 | 76 | 1014.8 |
| 20260905183547 | 81 | 67 | 8.0 | 13.0 | 0.00 | 0.00 | 0.00 | 76 | 1014.8 |
| 20260905183104 | 80 | 57 | 7.0 | 14.0 | 0.00 | 0.00 | 0.00 | 77 | 1014.9 |